Timeline UpdatesTrip UpdatesNews PostsPvt PostsTravel TipsAdmin PostsConv PostsFollowed PostsChat RequestsBlog PostsPNR Posts

Disclaimer
Search
 
 
Thu Oct 2, 2014 01:50:12 ISTHomeTrainsΣChainsAtlasPNRForumGalleryNewsFAQTripsMembersLoginFeedback
No Recent News for this Train
Other Trains in the News **new
Latest...
.
Thu Jul 24, 2014 (11:10PM)
⇐ Return Journey: Train# 19019

19020/Dehradun - Mumbai Bandra Terminus Express

Time-Table HAS CHANGED.
Sep 03 (11:17AM)
Change Departure Station:
Change Arrival Station:
Post a Train Travel TipPost a Train Travel Tip **new
Post a Comment/Question/Picture/VideoPost a Comment/Question/Picture/Video
Pantry/Catering
✕ NO Pantry Car
✓ Catering Avbl
Loco/Rake Reversals
SRE/Saharanpur Junction (6); LRJ/Laksar Junction (4);
RSA - Rake Sharing
Rake/Coach Composition
LOCO-SLR-HCPV-GEN-GEN-AB1-S1-S2-S3-S4-S5-S6-S7-S8-S9-SLR
Loco
GZB WAP-7 NZM-BDTS. ddn to nzm tkd wdp 3a. By Er...
Read more...
Ankit Shotra Bhagat Entry# 595554
News    PNR    Forum    Time-Table    Availability    Fare Chart    Map    Arr/Dep History    Trips    Gallery    ΣChains    X/O    Timeline    
Travel Time: 20h 18m    34 halts    Distance: 760 km    Avg Speed: 37 km/hr
Type: Mail/Express
Zone: WR/Western
Departs @ 10:30 (Avg on time)
Platform# 2
SMTWTFS
Dehradun/DDN 
Arrives @ 06:48 +1 night (Avg 19m late)
Platform# ???
SMTWTFS
Keshorai Patan/KPTN 

34 halts. 112 intermediate Stations between Dehradun and Keshorai Patan

Show ALL intermediate Stations  Show Old Time-Table

#CodeStation NameX/OArrivesAvgDepartsAvgHaltPFDay#KmSpeedElevZoneAddress
1DDNDehradun (4)»  -10:35 10:30+0210.038648mNRDehradun, Uttarakhand
2DWODoiwala  11:04 11:01+311:06 11:03+32m--119.841484mNRDehradun, Uttarakhand
3RWLRaiwala Junction (2)X  11:38 11:33+511:40 11:35+162m2140.517361mNRRishikesh, Uttarakhand
4MOTCMotichur (2)  12:00 11:58+812:02 12:00+112m1147.118312mNRHaridwar, Uttarakhand
5HWHaridwar Junction (9)X  12:15+1112:45+1230m3151.748294mNRHaridwar, Uttarakhand
6JWPJwalapurX  12:53 12:50+1412:55 12:52+162m--155.620292mNRHaridwar, Uttarakhand
7LRJLaksar Junction (4)X14:00+1314:25+1125m--178.653238mNRLaksar, Uttarakhand
8RKRoorkee (3)X  14:43 14:45+1214:45 14:50+152 5m3196.446264mNRRoorkee - 247667, Uttarakhand
9SRESaharanpur Junction (6)X15:35+1416:05+430m41131.148276mNRSaharanpur, Uttar Pradesh
10DBDDeoband (2)  16:50 16:48+1216:52 16:50+132m21165.344258mNRSaharanpur, Uttar Pradesh
11MOZMuzaffarnagar (3)X  17:20 17:23+1017:22 17:25+242m21189.363247mNRMuzaffarNagar, Uttar Pradesh
12KATKhatauli (2)  17:42 17:46+2717:44 17:48+272m11211.576239mNRKhatauli, Uttar Pradesh
13MUTMeerut Cantt. (2)  18:08 18:11+3018:10 18:13+302m11240.612230mNRMeerut, Uttar Pradesh
14MTCMeerut City Junction (6)X18:35+1719:20+1145m41244.973229mNRMeerut, Uttar Pradesh
15MDNRModinagar (2)X  19:34 19:36+1719:36 19:38+172m21264.455221mNRGhaziabad, Uttar Pradesh
16MUDMuradnagar (2)X  19:45 19:49+1719:47 19:51+172m21274.559220mNRGhaziabad, Uttar Pradesh
17GZNNew Ghaziabad (2)XO  20:02 20:03+1620:04 20:05+162m21286.214213mNRGhaziabad, Uttar Pradesh
18GZBGhaziabad Junction (6)XO  20:30 20:31+720:32 20:33+92m41292.134217mNRGhaziabad, Uttar Pradesh
19SBBSahibabad Junction (5)X  20:41 20:45+1520:43 20:46+152 1m--1298.833209mNRGhaziabad, Uttar Pradesh
20NZMDelhi Hazrat Nizamuddin (7)O21:15+1521:55+1440m11314.925209mNRNew Delhi 110013, Delhi NCT
21TKDTuglakabad (4)XO  22:18+922:20+142m--1324.644213mNRNear Tughlakabad Metro Station, Delhi NCT
22FDBFaridabad (4)O  22:44 22:35+822:46 22:36+112 1m31335.735206mNRold Faridabad, Haryana
23BVHBallabgarh (5)X  22:58 22:50+1123:00 22:52+112m--1343.729203mNRFaridabad, Haryana
24PWLPalwal (8)X  23:36+323:38+52m--1364.985200mNRPalwal, Haryana
25KSVKosi Kalan (3)O  00:08+1700:10+172m22407.429189mNCRKosi Kalan, Uttar Pradesh
26MTJMathura Junction (10)XO  01:35+001:45 01:40+310 5m32448.861179mNCRMathura, Uttar Pradesh
27BTEBharatpur Junction (5)  02:10 02:13+502:15+75 2m--2482.484174mWCRBharatpur, Rajasthan
28BXNBayana Junction (3)X  02:45+702:47+92m--2524.470198mWCRBayana, Rajasthan
29HANHindaun City (2)  03:15+1303:17+152m--2557.256230mWCRKarauli, Rajasthan
30SMBJShri Mahabirji (3)O  03:26 03:28+1503:28 03:30+152m--2567.441240mWCRKarauli, Rajasthan
31GGCGangapur City (3)  04:10 04:20+404:20 04:25+810 5m--2601.563270mWCRGangapur, Rajasthan
32MLZMalarnaX  04:50 04:57+1004:52 04:59+102m--2635.286236mWCRSawai Madhopur, Rajasthan
33SWMSawai Madhopur Junction (4)X  05:20+1005:25+115m--2665.478266mWCRSawai Madhopur, Rajasthan
34IDGIndargarh Sumerganj Mandi (2)X  05:48 05:53+1305:50 05:55+162m--2701.766247mWCRIndargarh, Rajasthan
35LKELakheri (3)  05:58 06:05+1706:00 06:07+172m--2712.769228mWCRBundi, Rajasthan
36KPTNKeshorai Patan•XO  06:38 06:48+1906:40 06:50+202m--2759.853243mWCRSH 33, Rajasthan
37GQLGurlaO  06:48 06:59+2406:50 07:00+262 1m--2767.711251mWCRSH 33, Rajasthan
38KOTAKota Junction (5)X07:30+707:50+1320m22773.133256mWCRKota, Rajasthan
39DKNTDakaniya Talav (2)  08:01 08:07+1508:03 08:08+172 1m22782.479278mWCRKota, Rajasthan
40DARADara  08:30 08:37+1908:32 08:39+202m--2820.663354mWCRDara, Rajasthan
41MKXMorak (2)X  08:48 08:53+1908:50 08:55+202m--2835.342337mWCRMorak, Rajasthan
42RMARamganj Mandi Junction (3)  09:03 09:08+1709:05 09:10+212m--2844.457358mWCRRamganj Mandi, Rajasthan
43JHWJhalawar Road (3)  09:18 09:23+2009:20 09:25+212m--2856.755361mWCRJhalawar City, Rajasthan
44BWMBhawani Mandi (3)  09:38 09:43+1909:40 09:45+272m--2873.276384mWCRBhawani Mandi, Madhya Pradesh
45GOHGaroth (2)X  09:58 10:03+2810:00 10:05+282m12895.928441mWCRMadhya Pradesh 458880, Madhya Pradesh
46SGZShamgarh (3)X  10:25 10:28+1610:30+235 2m--2906.767463mWCRMandsaur, Madhya Pradesh
47SVASuwasra (2)  10:42+2510:44+262m--2920.166450mWCRSuwasra, Madhya Pradesh
48CMUChau Mahla (3)  10:58+2611:00+292m12935.535426mWCRJhalawar, Rajasthan
49THURThuriaX  11:24+1711:26+182m--2949.721430mWCRMDR 45, Madhya Pradesh
50VMAVikramgarh Alot (2)X  11:48+811:50+132m12957.361443mWCRKota Division, Madhya Pradesh
51LNRLuni Richha  12:03+1012:05+122m--2970.628471mWCRAlote, Madhya Pradesh
52MEPMahidpur Road  12:28+312:30+82m--2981.229493mWCRGogapur, Madhya Pradesh
53NADNagda Junction (4)  13:05+413:15+710m--2998.364468mWRNagda, Madhya Pradesh
54KUHKhachrod (2)  13:26 13:28+1013:28 13:30+112m--21012.157497mWRUjjain, Madhya Pradesh
55RNHRunkheraX  13:39 13:41+1013:41 13:42+102 1m--21022.655478mWRUjjain, Madhya Pradesh
56BODBangrodX  13:48 13:50+1013:50 13:51+102 1m--21029.925484mWRRatlam, Madhya Pradesh
57RTMRatlam Junction (7)X  14:15+514:35+720m421039.770495mWRRatlam, Madhya Pradesh
58RTIRaoti (2)  14:56 14:58+1314:58 14:59+132 1m--21066.665409mWRState Highway 39A, Madhya Pradesh
59BOGBhairongarh (2)  15:08 15:10+1515:10 15:11+152 1m--21078.545374mWRBhairongarh Railway Station, Madhya Pradesh
60BMIBamnia (2)  15:17 15:19+1615:19 15:21+162m--21084.542392mWRBamnia, Madhya Pradesh
61AGRAmargarh (2)  15:25 15:27+1515:27 15:28+152 1m--21088.652410mWRSH 39A, Madhya Pradesh
62PCNPanch Pipila (2)  15:37 15:39+1515:39 15:40+152 1m--21098.176369mWRSH 39A, Madhya Pradesh
63THDRThandla Road (2)  15:49 15:51+1815:51 15:53+182m--21112.060317mWRJhabua, Madhya Pradesh
64MGNMeghnagar (3)  15:59 16:01+1916:01 16:03+192m--21120.073317mWRJhabua, Madhya Pradesh
65ANASAnas (2)  16:13 16:15+1916:15 16:16+182 1m--21134.668288mWRMadhya Pradesh 389154 ?, Madhya Pradesh
66BIOBordi (2)  16:21 16:23+2016:23 16:24+192 1m--21142.558289mWRNational Highway 59, Gujarat
67DHDDahod (3)X  16:35+2316:40 16:37+255 2m--21153.164313mWRDahod, Gujarat
68LMKLimkheda  17:06 17:08+3117:08 17:09+312 1m--21186.160205mWRLimkheda, Gujarat
69PPDPiplod Junction  17:15 17:17+3117:17 17:19+302m--21194.079209mWRPiplod, Gujarat
70SATSant Road (2)X  17:26 17:28+3117:28 17:30+302m221205.920169mWROrwara, Gujarat
71GDAGodhra Junction (3)X  18:30+318:35+75m1021226.254122mWRGodhra, Gujarat
72KRSAKharsaliya (2)  18:45 18:47+1118:47 18:48+112 1m--21237.176107mWRPanchmahal, Gujarat
73DRLDerolX  18:56 18:58+1218:58 19:00+122m121249.86881mWRKalol, Gujarat
74CPNChampaner Road JunctionXO  19:09 19:11+1119:11 19:13+112m--21262.37578mWRPanchmahal, Gujarat
75SMLASamlaya Junction (3)X  19:20 19:22+1119:22 19:24+112m--21273.55267mWRVadodara, Gujarat
76BRCVadodara Junction (7)  19:55+2220:05+2110m321300.18136mWRVadodara 390005, Gujarat
77MYGMiyagam Karjan (2)  20:25 20:27+2820:27 20:28+282 1m--21330.07029mWRKarjan, Gujarat
78BHBharuch Junction (5)X  21:01 21:03+1821:03 21:05+182m421370.76219mWRBharuch, Gujarat
79AKVAnkleshwar Junction (4)X  21:12 21:14+1821:14 21:16+182m221380.09319mWRAnkleshwar, Gujarat
80KSBKosamba Junction (3)X21:29 21:28+2721:31 21:30+272m--21398.53130mWRKosamba, Gujarat
81STSurat (4)X  22:30+922:38+88m221429.97419mWRSurat 395001, Gujarat
82NVSNavsari (3)  23:03 23:02+1523:05+152 3m--21459.57914mWRNavsari, Gujarat
83BIMBilimora Junction (4)X  23:21+2123:23+212m--21480.73611mWRBilimora, Gujarat
84BLValsad (3)  23:53+1723:55+232m321498.63815mWRValsad, Gujarat
85VAPIVapi (3)X  00:36+1400:38+152m--31524.96827mWRVapi, Gujarat
86PLGPalghar (3)X  02:04 01:50+1902:06 02:02+192 12m--31606.43519mWRPalghar, Maharashtra
87VRVirar (8)  02:56+602:58+72m--31637.5536mWRDist. Palghar, Maharashtra
88BVIMumbai Borivali (8)  03:30 03:27+503:32+62 5m531663.32319mWRMumbai - 400092, Maharashtra
89BDTSMumbai Bandra Terminus (5)  04:20+0-131682.1-4mWRMumbai 400050, Maharashtra
Scroll to Top
Scroll to Bottom